Wahpeton, MN

12:21 AM CST on December 06, 2019 (GMT -0600)
Stern

Weather History for KBWP - October, 2019

Change the Weather History Date:

Sunday, October 6, 2019

  Actual Average (KFFM) Record (KFFM)
Temperature  
Mean Temperature 51 °F -  
Max Temperature 60 °F 60 °F 86 °F (1970)
Min Temperature 42 °F 37 °F 23 °F (2001)
Degree Days  
Heating Degree Days 14    
Growing Degree Days 1 (Base 50)    
Moisture  
Dew Point 39 °F    
Average Humidity 66    
Maximum Humidity 81    
Minimum Humidity 42    
Precipitation  
Precipitation 0.00 in - - ()
Sea Level Pressure  
Sea Level Pressure 29.91 in    
Wind  
Wind Speed 15 mph ()    
Max Wind Speed 31 mph    
Max Gust Speed 41 mph    
Visibility 10.0 miles    
Events      
Averages and records for this station are not official NWS values.
T = Trace of Precipitation, MM = Missing Value Source: Averaged Metar Reports

Daily Weather History Graph

Daily Weather History Graph

Search for Another Location

Airport or City:

Astronomy

Oct. 06, 2019 Rise Set
Actual Time 7:31 AM CDT 6:57 PM CDT
Civil Twilight 7:01 AM CDT 7:27 PM CDT
Nautical Twilight 6:26 AM CDT 8:01 PM CDT
Astronomical Twilight 5:51 AM CDT 8:36 PM CDT
Moon 4:01 PM CDT 12:04 AM CDT
Length of Visible Light 12h 25m
Length of Day
11h 25m
First Quarter, 60% of the Moon is Illuminated
Oct 6
First Quarter
Oct 13
Full
Oct 21
Last Quarter
Oct 27
New
Nov 4
First Quarter

Hourly Weather History & Observations

Time (CDT) Temp. Windchill Dew Point Humidity Pressure Visibility Wind Dir Wind Speed Gust Speed Precip Events Conditions
12:15 AM 46.4 °F 40.4 °F 41.0 °F 81% 29.78 in 10.0 mi West 13.8 mph - N/A   Unknown
12:35 AM 46.4 °F 40.4 °F 39.2 °F 76% 29.78 in 10.0 mi WSW 13.8 mph - N/A   Unknown
12:55 AM 46.4 °F 40.4 °F 39.2 °F 76% 29.78 in 10.0 mi WSW 13.8 mph - N/A   Unknown
1:15 AM 46.4 °F 40.7 °F 37.4 °F 71% 29.78 in 10.0 mi WSW 12.7 mph - N/A   Unknown
1:35 AM 44.6 °F 38.1 °F 37.4 °F 76% 29.79 in 10.0 mi WSW 13.8 mph - N/A   Unknown
1:55 AM 44.6 °F 37.8 °F 37.4 °F 76% 29.79 in 10.0 mi WSW 15.0 mph - N/A   Unknown
2:15 AM 44.6 °F 37.8 °F 37.4 °F 76% 29.79 in 10.0 mi WSW 15.0 mph - N/A   Unknown
2:35 AM 44.6 °F 38.1 °F 37.4 °F 76% 29.80 in 10.0 mi West 13.8 mph - N/A   Unknown
2:55 AM 44.6 °F 38.1 °F 37.4 °F 76% 29.80 in 10.0 mi West 13.8 mph - N/A   Unknown
3:15 AM 44.6 °F 38.1 °F 37.4 °F 76% 29.81 in 10.0 mi West 13.8 mph 19.6 mph N/A   Unknown
3:35 AM 44.6 °F 38.1 °F 37.4 °F 76% 29.81 in 10.0 mi West 13.8 mph - N/A   Unknown
3:55 AM 44.6 °F 37.4 °F 35.6 °F 71% 29.82 in 10.0 mi West 16.1 mph - N/A   Unknown
4:15 AM 44.6 °F 38.1 °F 35.6 °F 71% 29.82 in 10.0 mi West 13.8 mph - N/A   Unknown
4:35 AM 44.6 °F 38.1 °F 35.6 °F 71% 29.83 in 10.0 mi WSW 13.8 mph 18.4 mph N/A   Unknown
4:55 AM 42.8 °F 35.8 °F 35.6 °F 76% 29.83 in 10.0 mi WSW 13.8 mph - N/A   Unknown
5:15 AM 42.8 °F 35.8 °F 35.6 °F 76% 29.84 in 10.0 mi West 13.8 mph - N/A   Unknown
5:35 AM 44.6 °F 37.4 °F 35.6 °F 71% 29.84 in 10.0 mi West 16.1 mph - N/A   Unknown
5:55 AM 44.6 °F 38.1 °F 35.6 °F 71% 29.84 in 10.0 mi West 13.8 mph - N/A   Unknown
6:15 AM 44.6 °F 37.8 °F 37.4 °F 76% 29.84 in 10.0 mi West 15.0 mph - N/A   Unknown
6:35 AM 44.6 °F 37.8 °F 37.4 °F 76% 29.84 in 10.0 mi West 15.0 mph - N/A   Unknown
6:55 AM 44.6 °F 38.1 °F 35.6 °F 71% 29.84 in 10.0 mi WSW 13.8 mph - N/A   Unknown
7:15 AM 42.8 °F 35.4 °F 35.6 °F 76% 29.85 in 10.0 mi WSW 15.0 mph - N/A   Unknown
7:35 AM 42.8 °F 35.4 °F 35.6 °F 76% 29.86 in 10.0 mi WSW 15.0 mph - N/A   Unknown
7:55 AM 44.6 °F 38.1 °F 37.4 °F 76% 29.86 in 10.0 mi WSW 13.8 mph - N/A   Unknown
8:15 AM 44.6 °F 37.8 °F 37.4 °F 76% 29.87 in 10.0 mi WSW 15.0 mph - N/A   Unknown
8:35 AM 44.6 °F 37.2 °F 37.4 °F 76% 29.87 in 10.0 mi WSW 17.3 mph 23.0 mph N/A   Unknown
8:55 AM 46.4 °F 39.5 °F 37.4 °F 71% 29.88 in 10.0 mi West 17.3 mph 24.2 mph N/A   Unknown
9:15 AM 46.4 °F 39.0 °F 37.4 °F 71% 29.89 in 10.0 mi West 19.6 mph 24.2 mph N/A   Unknown
9:35 AM 48.2 °F - 39.2 °F 71% 29.90 in 10.0 mi West 17.3 mph 23.0 mph N/A   Unknown
9:55 AM 50.0 °F - 39.2 °F 66% 29.91 in 10.0 mi West 19.6 mph - N/A   Unknown
10:15 AM 51.8 °F - 41.0 °F 67% 29.91 in 10.0 mi West 19.6 mph 27.6 mph N/A   Unknown
10:35 AM 53.6 °F - 41.0 °F 62% 29.91 in 10.0 mi West 23.0 mph 28.8 mph N/A   Unknown
10:55 AM 53.6 °F - 41.0 °F 62% 29.92 in 10.0 mi West 20.7 mph 26.5 mph N/A   Unknown
11:15 AM 53.6 °F - 41.0 °F 62% 29.93 in 10.0 mi West 20.7 mph 25.3 mph N/A   Unknown
11:35 AM 55.4 °F - 41.0 °F 58% 29.94 in 10.0 mi West 25.3 mph 32.2 mph N/A   Unknown
11:55 AM 53.6 °F - 41.0 °F 62% 29.94 in 10.0 mi West 26.5 mph 29.9 mph N/A   Unknown
12:15 PM 55.4 °F - 41.0 °F 58% 29.94 in 10.0 mi West 23.0 mph 32.2 mph N/A   Unknown
12:35 PM 55.4 °F - 41.0 °F 58% 29.94 in 10.0 mi West 24.2 mph 32.2 mph N/A   Unknown
12:55 PM 59.0 °F - 41.0 °F 51% 29.94 in 10.0 mi West 24.2 mph 35.7 mph N/A   Unknown
1:15 PM 59.0 °F - 41.0 °F 51% 29.94 in 10.0 mi West 25.3 mph 33.4 mph N/A   Unknown
1:35 PM 59.0 °F - 41.0 °F 51% 29.94 in 10.0 mi West 25.3 mph 31.1 mph N/A   Unknown
2:15 PM 60.8 °F - 37.4 °F 42% 29.93 in 10.0 mi WNW 25.3 mph 38.0 mph N/A   Unknown
2:35 PM 60.8 °F - 37.4 °F 42% 29.93 in 10.0 mi West 31.1 mph 39.1 mph N/A   Unknown
2:55 PM 60.8 °F - 37.4 °F 42% 29.93 in 10.0 mi West 25.3 mph 38.0 mph N/A   Unknown
3:15 PM 60.8 °F - 37.4 °F 42% 29.93 in 10.0 mi West 26.5 mph 31.1 mph N/A   Unknown
3:35 PM 60.8 °F - 39.2 °F 45% 29.93 in 10.0 mi West 27.6 mph 36.8 mph N/A   Unknown
3:55 PM 60.8 °F - 37.4 °F 42% 29.94 in 10.0 mi West 23.0 mph 35.7 mph N/A   Unknown
4:15 PM 60.8 °F - 37.4 °F 42% 29.94 in 10.0 mi West 28.8 mph 39.1 mph N/A   Unknown
4:35 PM 59.0 °F - 37.4 °F 45% 29.94 in 10.0 mi West 23.0 mph 41.4 mph N/A   Unknown
4:55 PM 60.8 °F - 37.4 °F 42% 29.95 in 10.0 mi West 21.9 mph 28.8 mph N/A   Unknown
5:15 PM 59.0 °F - 37.4 °F 45% 29.95 in 10.0 mi West 19.6 mph 23.0 mph N/A   Unknown
5:35 PM 57.2 °F - 37.4 °F 48% 29.96 in 10.0 mi West 16.1 mph - N/A   Unknown
5:55 PM 55.4 °F - 39.2 °F 54% 29.96 in 10.0 mi WNW 12.7 mph - N/A   Unknown
6:15 PM 55.4 °F - 41.0 °F 58% 29.96 in 10.0 mi West 10.4 mph - N/A   Unknown
6:35 PM 55.4 °F - 41.0 °F 58% 29.96 in 10.0 mi West 10.4 mph - N/A   Unknown
6:55 PM 53.6 °F - 41.0 °F 62% 29.96 in 10.0 mi West 8.1 mph - N/A   Unknown
7:15 PM 53.6 °F - 41.0 °F 62% 29.97 in 10.0 mi West 5.8 mph - N/A   Unknown
7:35 PM 51.8 °F - 41.0 °F 67% 29.97 in 10.0 mi West 5.8 mph - N/A   Unknown
7:55 PM 51.8 °F - 41.0 °F 67% 29.98 in 10.0 mi West 5.8 mph - N/A   Unknown
8:15 PM 51.8 °F - 41.0 °F 67% 29.99 in 10.0 mi West 5.8 mph - N/A   Unknown
8:35 PM 50.0 °F - 41.0 °F 71% 29.99 in 10.0 mi West 8.1 mph - N/A   Unknown
8:55 PM 48.2 °F - 41.0 °F 76% 29.99 in 10.0 mi West 6.9 mph - N/A   Unknown
9:15 PM 48.2 °F - 41.0 °F 76% 30.00 in 10.0 mi West 5.8 mph - N/A   Unknown
9:35 PM 44.6 °F 40.2 °F 39.2 °F 81% 30.01 in 10.0 mi West 8.1 mph - N/A   Unknown
9:55 PM 44.6 °F 40.2 °F 39.2 °F 81% 30.01 in 10.0 mi West 8.1 mph - N/A   Unknown
10:15 PM 44.6 °F 39.7 °F 39.2 °F 81% 30.02 in 10.0 mi West 9.2 mph - N/A   Unknown
10:35 PM 44.6 °F 39.2 °F 39.2 °F 81% 30.03 in 10.0 mi West 10.4 mph - N/A   Unknown
10:55 PM 44.6 °F 39.2 °F 39.2 °F 81% 30.03 in 10.0 mi West 10.4 mph - N/A   Unknown
11:15 PM 44.6 °F 39.7 °F 37.4 °F 76% 30.04 in 10.0 mi West 9.2 mph - N/A   Unknown
11:35 PM 44.6 °F 39.2 °F 37.4 °F 76% 30.05 in 10.0 mi West 10.4 mph - N/A   Unknown
11:55 PM 44.6 °F 39.7 °F 37.4 °F 76% 30.04 in 10.0 mi West 9.2 mph - N/A   Unknown